Regional Weather Roundup
Issued by NWS

Home | Current Version | Previous Version | Graphics & Text | Print | Product List | Glossary On
Versions: 1 2 3 4 5 6 7 8 9 10 11 12 13 14 15 16 17 18 19 20 21 22 23 24 25 26 27 28 29 30 31 32 33 34 35 36 37 38 39 40 41 42 43 44 45 46 47 48 49 50
000
ASUS43 KBIS 052110
RWRND

NORTH DAKOTA REGIONAL WEATHER ROUNDUP
NATIONAL WEATHER SERVICE BISMARCK ND
400 PM CDT THU MAY 05 2016

NOTE: "FAIR" INDICATES FEW OR NO CLOUDS BELOW 12,000 FEET WITH NO
SIGNIFICANT WEATHER AND/OR OBSTRUCTIONS TO VISIBILITY.


NDZ001>003-009>011-017-052200-
NORTHWEST NORTH DAKOTA

CITY           SKY/WX    TMP DP  RH WIND       PRES   REMARKS
WILLISTON      CLOUDY    89  39  17 SW12      29.78F
MINOT          SUNNY     94  34  12 SW10      29.76F
MINOT AFB      SUNNY     89  37  15 W12       29.74F
$$

NDZ018>021-031>035-040>046-052200-
SOUTHWEST NORTH DAKOTA

CITY           SKY/WX    TMP DP  RH WIND       PRES   REMARKS
BISMARCK       SUNNY     87  45  23 S6G16     29.82F
DICKINSON      SUNNY     84  35  17 MISG      29.83F
GARRISON         N/A     89  40  17 SW9       29.80F
HETTINGER ARPT SUNNY     83  39  21 S5        29.88F
$$

NDZ004>008-012>016-024-026-027-054-052200-
NORTHEAST NORTH DAKOTA

CITY           SKY/WX    TMP DP  RH WIND       PRES   REMARKS
GRAND FORKS    MOSUNNY   92  38  15 W18G25    29.74F
GRND FRKS AFB  SUNNY     91  37  15 W14G26    29.76S
DEVILS LAKE    SUNNY     87  40  19 SW9       29.79F
$$

NDZ022-023-025-028>030-036>039-047>053-052200-
SOUTHEAST NORTH DAKOTA

CITY           SKY/WX    TMP DP  RH WIND       PRES   REMARKS
FARGO          SUNNY     90  36  14 SW20      29.79F
JAMESTOWN      SUNNY     87  40  19 SW21G26   29.81F
$$





USA.gov is the U.S. government's official web portal to all federal, state and local government web resources and services.